Terminal Aerodrome Forecast
Issued by NWS Quad Cities IA IL

Home | Current Version | Previous Version | Text Only | Print | Product List | Glossary On
Versions: 1 2 3 4 5 6 7 8 9 10 11 12 13 14 15 16 17 18 19 20 21 22 23
000
FTUS43 KDVN 192300
TAFDBQ
TAF
KDBQ 192325Z 2000/2024 20006KT P6SM BKN035 OVC050
     FM200700 14003KT P6SM OVC025
     FM201000 15005KT 6SM BR OVC020
     FM202100 18007KT P6SM OVC025=

USA.gov is the U.S. government's official web portal to all federal, state and local government web resources and services.